Wetbulb
44.03 44.02 43.85 45.23 45.33 45.25 43.89 40.40 34.37 41.83 43.66 36.04 35.29 32.92 34.47 36.28 32.24 31.96 33.38 33.62 29.55 28.80 29.30 29.65 30.95 30.83 33.69 38.11 33.50 27.76 32.42 31.12 26.03 25.21 19.97 20.10 24.87 28.98 28.90 23.42 21.68 24.80 24.67 4.88
43.21 43.31 43.11 43.16 42.86 42.78 39.11 33.84 36.64 41.12 41.21 29.76 31.23 30.69 29.83 29.31 27.54 27.92 27.97 26.95 27.50 27.51 25.58 22.44 23.78 27.60 36.77 37.78 32.62 31.80 32.06 27.70 21.87 19.18 22.43 22.93 19.97 13.86 16.55 20.22 22.54 23.05 20.65 1.38
42.63 42.38 42.20 41.83 42.06 41.88 38.25 34.30 29.72 34.99 34.51 31.66 24.93 21.01 23.61 20.90 27.16 26.34 24.64 24.47 24.49 20.66 23.18 26.07 24.48 22.94 27.69 27.16 24.11 32.79 34.88 23.80 19.37 19.89 15.75 16.45 9.19 6.04 10.38 14.61 19.85 13.56 -0.69 -1.68
41.94 41.39 41.41 41.57 41.69 41.68 38.00 34.98 30.66 31.48 21.13 23.68 19.63 16.56 15.14 13.00 15.80 19.08 21.65 19.16 17.58 16.41 15.51 15.72 19.16 20.43 17.91 22.20 19.56 21.47 20.61 3.47 5.54 5.35 5.36 4.53 2.69 1.67 2.81 1.43 2.60 6.59 -0.71 -1.54
41.73 41.23 41.37 41.03 41.55 40.69 37.30 30.20 29.24 24.15 16.98 17.51 15.75 12.38 9.64 8.23 11.20 11.55 15.85 13.03 16.40 14.56 10.49 10.26 8.39 11.21 10.30 9.09 11.93 13.52 20.09 4.01 5.89 1.45 5.05 3.45 -0.35 2.05 0.87 0.41 1.32 0.12 -0.18 -2.00
40.57 40.00 40.51 40.08 40.48 39.17 33.10 33.57 33.76 26.17 11.60 12.15 14.18 8.23 6.48 7.68 7.61 12.55 16.03 15.59 16.28 12.56 13.74 16.51 15.30 14.51 12.72 10.27 6.60 7.65 15.28 9.16 7.33 0.74 5.44 5.70 -2.57 -1.19 0.19 0.13 1.34 2.69 -1.06 1.13
38.85 38.30 39.17 38.33 38.17 36.79 34.29 27.49 30.48 23.28 9.98 10.75 7.41 4.04 2.25 3.73 4.82 5.32 10.48 16.70 13.09 17.44 19.11 19.20 20.05 17.35 14.91 14.28 10.25 9.62 8.97 11.90 9.44 2.71 3.94 -4.54 -1.27 6.39 3.97 -0.81 0.21 3.26 2.40 2.83
38.41 37.49 37.56 36.95 35.04 32.31 26.55 23.89 27.25 19.21 7.76 5.46 7.89 4.42 3.03 4.46 4.42 5.70 9.49 15.30 17.43 17.34 14.97 15.28 13.38 12.54 13.30 12.16 11.04 7.85 9.16 11.91 4.09 0.20 -5.80 -3.66 0.46 2.70 1.66 0.89 -2.67 1.98 1.12 1.86
37.81 37.11 36.25 34.68 33.16 29.61 22.60 17.55 20.87 19.58 13.20 8.86 4.20 3.91 1.73 3.45 5.54 10.35 10.74 14.15 15.23 16.33 18.13 13.08 3.66 -1.24 -0.30 0.95 2.14 11.21 7.02 10.15 8.90 4.56 -1.92 -5.69 0.34 4.12 6.83 6.20 -0.59 1.54 0.55 1.29
37.75 36.96 36.15 35.06 33.47 30.70 24.17 18.14 14.79 19.53 11.00 10.62 3.96 6.68 4.89 4.14 4.56 2.62 5.95 8.90 10.47 15.79 13.32 6.81 2.64 1.01 0.05 -3.90 -6.58 -6.90 -2.15 -1.74 -2.49 1.78 -2.54 -1.50 2.37 5.38 6.68 -1.54 -1.42 3.16 1.54 2.24
37.97 36.84 35.88 35.03 34.07 32.22 25.17 18.91 15.67 21.56 14.26 11.07 2.49 3.28 4.80 6.50 6.06 5.75 9.81 10.13 11.32 10.03 6.27 6.24 2.45 1.69 -1.63 -1.57 -6.99 -7.45 -5.63 -5.65 -4.35 1.57 -1.95 -5.64 2.57 6.49 2.05 1.90 2.87 3.44 4.46 4.60
37.87 37.24 36.18 35.36 33.68 31.18 28.85 22.38 18.14 18.63 20.27 16.21 7.60 8.76 9.41 8.93 7.66 5.60 9.07 8.00 5.14 7.18 7.64 5.41 5.77 2.10 3.10 -9.62 -1.71 -2.18 -2.66 -5.12 -3.11 -3.13 0.70 -0.49 0.54 2.12 2.54 1.15 4.67 5.16 4.86 6.21
37.09 36.62 36.10 34.92 33.33 31.53 26.47 21.05 18.46 19.59 17.84 15.15 16.41 13.19 10.98 11.68 9.20 10.62 8.03 10.23 5.41 6.16 2.38 6.15 2.94 -2.38 0.11 0.01 -0.30 -2.08 -2.80 -8.95 -1.50 -2.33 -1.19 1.11 1.91 3.08 2.57 4.14 4.81 7.29 7.33 6.53
36.50 35.28 34.96 35.34 34.22 31.90 26.93 22.28 20.56 21.17 18.92 15.91 15.02 14.27 13.71 16.51 15.41 11.55 11.65 10.73 9.48 8.60 9.40 5.89 4.54 2.51 2.30 1.64 -1.42 0.76 0.84 -1.62 -6.83 0.13 0.94 0.83 -0.23 1.43 5.56 6.06 7.07 6.61 7.65 7.35
37.08 36.54 35.81 35.18 35.67 31.86 26.58 25.02 23.94 22.80 21.99 17.13 16.30 12.94 14.07 16.33 14.84 13.74 12.17 9.34 9.74 9.89 8.81 6.28 1.63 3.12 3.11 -1.86 -1.81 5.45 2.64 2.78 2.15 2.90 2.79 2.62 4.54 4.94 3.54 2.60 4.18 6.26 5.62 5.32
36.28 35.79 35.53 34.76 33.31 31.68 25.76 22.98 23.38 26.17 21.99 19.76 14.98 15.17 13.21 13.93 12.86 14.00 12.25 12.38 9.95 8.24 8.23 2.16 0.43 -9.19 1.68 5.33 5.78 9.20 3.97 -1.39 3.19 6.28 1.08 -0.11 3.52 -1.53 -0.70 -0.92 1.34 3.10 2.87 3.09
35.01 34.69 34.41 33.96 30.90 25.33 22.83 20.99 23.25 27.04 22.99 19.53 14.27 14.45 13.11 10.18 11.99 12.53 12.59 12.30 9.29 9.34 4.34 4.91 5.93 5.17 4.98 6.55 6.77 13.32 13.90 8.99 5.89 0.67 -4.15 1.10 2.87 3.70 -1.18 -4.76 -1.36 0.69 -0.01 -1.17
33.73 33.13 33.07 33.27 31.80 28.38 24.05 25.38 24.78 21.95 18.35 17.30 12.76 12.31 13.22 9.16 8.88 9.73 9.64 10.23 11.45 7.29 3.31 3.45 6.20 4.87 6.38 8.43 13.39 14.34 13.90 10.73 6.88 3.45 -2.42 5.35 4.55 -1.63 -1.12 -1.21 -2.07 -2.96 -2.12 0.14
34.00 33.39 31.56 25.56 22.85 21.54 23.52 27.91 22.70 19.96 19.04 10.29 8.79 5.10 6.96 8.45 7.06 7.43 9.40 7.81 8.65 8.78 6.72 4.90 4.18 9.86 8.65 12.46 13.40 12.89 14.11 12.78 12.43 11.19 4.01 0.94 -1.82 -0.20 2.38 3.10 2.51 -0.12 0.98 2.89
32.37 26.29 23.45 20.47 20.88 28.14 25.35 20.09 18.08 14.52 11.90 10.37 4.74 1.38 5.05 3.94 4.65 6.22 4.45 5.29 2.93 5.19 2.89 3.24 4.97 10.47 11.69 13.09 14.75 12.69 11.90 12.33 12.57 5.06 9.88 11.58 9.44 9.83 9.60 8.78 8.85 7.35 5.61 5.57
23.93 21.19 20.23 22.18 25.99 22.26 17.64 13.80 12.44 11.14 9.03 6.86 2.69 2.02 3.09 5.02 1.08 0.38 -1.63 -0.52 0.52 3.66 3.24 3.26 3.97 7.55 13.24 15.72 15.22 16.55 13.60 13.99 14.42 13.36 11.89 11.76 11.04 9.45 9.46 9.43 9.97 9.51 8.50 6.67
23.21 22.55 22.30 21.63 18.71 17.36 14.03 8.26 10.94 9.45 7.66 7.12 6.22 5.08 4.61 4.20 4.36 0.99 1.19 -0.82 0.58 2.65 0.20 2.37 5.19 11.21 13.84 16.64 15.96 15.75 15.88 15.44 14.55 14.60 13.90 13.56 12.80 12.70 11.70 10.60 9.89 9.86 9.72 9.34
22.79 18.99 15.17 17.84 13.67 9.78 7.95 3.86 9.44 9.24 8.87 5.23 5.41 4.17 2.76 4.91 5.46 0.42 -0.52 2.14 2.91 0.04 3.46 4.74 8.18 13.13 15.64 15.69 15.22 14.36 15.04 14.44 14.01 13.70 14.16 13.88 13.12 13.11 12.40 11.35 12.03 11.38 9.94 9.72
15.83 14.42 10.70 10.31 10.18 10.19 8.69 9.68 10.14 11.57 7.60 6.74 5.59 2.44 2.68 4.18 1.76 -1.48 1.84 2.75 -1.31 6.40 4.85 5.83 12.41 14.37 14.50 15.19 14.86 13.35 12.44 13.01 12.45 12.06 12.38 12.13 11.89 11.42 12.11 12.10 12.47 11.82 10.34 10.44
12.42 14.92 8.61 11.41 10.98 8.49 7.68 4.73 5.53 9.20 7.63 6.46 3.63 3.50 2.80 1.87 1.14 3.50 6.21 6.60 4.29 3.91 6.09 11.24 13.86 14.33 13.84 13.20 13.28 12.64 12.28 12.35 11.34 11.41 10.99 10.87 10.94 10.49 10.60 11.85 12.32 11.62 10.86 10.25
13.67 11.03 11.27 6.68 11.25 12.57 9.85 6.19 7.26 7.93 6.39 6.13 4.47 1.14 4.30 3.40 1.97 7.85 3.24 4.78 4.87 7.92 11.45 13.60 14.27 12.87 12.58 12.33 12.47 12.46 12.76 11.72 10.86 10.79 10.59 10.53 10.11 9.71 9.91 10.75 11.04 11.15 10.76 9.39
12.70 9.10 7.08 8.73 8.96 11.77 8.91 5.76 7.46 8.37 7.29 5.50 4.57 4.83 4.43 4.41 7.97 7.61 10.74 6.97 9.60 12.16 12.77 13.98 13.55 11.98 12.11 12.14 12.58 12.26 11.16 10.47 10.46 10.25 9.90 9.58 10.49 10.77 10.37 9.10 10.10 11.04 11.23 11.16
MSLP
1020.93 1020.38 1019.69 1018.93 1018.19 1017.13 1016.47 1016.13 1015.69 1016.14 1015.74 1015.74 1014.95 1014.26 1013.67 1013.54 1013.04 1013.05 1012.18 1011.05 1010.77 1010.02 1009.22 1007.14 1005.99 1004.52 1003.63 1003.58 1004.06 1005.11 1005.63 1005.84 1006.65 1007.77 1009.06 1009.53 1009.16 1009.18 1009.09 1009.20 1009.43 1010.75 1013.35 1021.40
1020.94 1020.36 1020.04 1019.44 1018.57 1017.87 1017.79 1016.85 1016.47 1016.44 1016.10 1016.25 1016.15 1016.11 1015.56 1015.45 1015.00 1014.38 1013.91 1013.51 1013.39 1012.60 1011.56 1010.10 1008.79 1007.47 1005.32 1004.04 1004.10 1004.95 1005.74 1006.55 1008.14 1009.79 1011.09 1011.36 1011.86 1013.03 1012.59 1011.85 1011.99 1013.22 1016.32 1023.49
1021.29 1020.92 1020.32 1019.97 1019.28 1018.27 1018.26 1017.49 1017.03 1017.09 1017.29 1018.78 1019.10 1018.88 1017.89 1017.42 1017.33 1016.27 1016.43 1015.68 1015.11 1014.55 1012.46 1011.63 1011.01 1009.91 1008.59 1008.46 1008.04 1006.84 1006.11 1008.15 1010.10 1011.89 1012.67 1013.75 1015.54 1016.79 1016.37 1015.39 1015.79 1017.52 1021.59 1025.27
1021.52 1021.43 1020.71 1020.20 1019.21 1018.68 1018.33 1018.11 1018.48 1018.95 1020.15 1020.27 1021.52 1022.05 1021.51 1020.90 1019.92 1019.45 1018.83 1017.64 1017.92 1017.27 1015.49 1014.23 1013.18 1012.93 1011.49 1010.93 1011.08 1010.11 1010.12 1013.88 1015.28 1016.89 1017.25 1017.88 1019.77 1020.66 1020.44 1020.35 1020.88 1021.71 1025.26 1027.42
1022.00 1021.68 1021.09 1020.71 1019.50 1019.07 1018.81 1019.43 1019.92 1021.06 1022.51 1023.02 1023.42 1024.22 1024.55 1024.35 1023.41 1022.85 1020.99 1020.65 1019.73 1019.12 1018.85 1019.21 1018.23 1016.69 1017.19 1017.03 1014.42 1013.60 1013.46 1016.62 1016.72 1019.75 1021.11 1020.58 1022.92 1023.97 1024.59 1025.33 1025.53 1026.12 1027.77 1029.95
1022.57 1022.17 1021.40 1021.01 1019.93 1019.32 1020.34 1021.07 1020.93 1021.64 1025.35 1025.66 1025.70 1027.52 1027.55 1026.57 1026.45 1024.12 1023.31 1022.46 1021.17 1020.80 1020.86 1020.78 1020.25 1019.66 1019.75 1019.60 1018.37 1016.96 1015.97 1016.75 1017.62 1020.51 1021.30 1021.93 1024.48 1027.54 1027.98 1028.31 1029.01 1028.75 1029.20 1031.05
1023.26 1022.83 1022.06 1021.85 1020.81 1020.39 1021.36 1022.69 1022.34 1023.36 1026.90 1027.56 1028.75 1029.16 1029.43 1028.34 1027.85 1026.82 1024.50 1023.36 1022.64 1022.14 1021.68 1020.98 1020.40 1020.26 1020.05 1019.74 1019.78 1019.31 1018.20 1017.61 1018.29 1020.70 1022.03 1025.22 1029.07 1029.56 1029.57 1030.27 1031.23 1031.47 1031.29 1032.27
1023.85 1023.62 1022.95 1022.74 1022.30 1022.14 1022.66 1023.94 1023.65 1025.15 1028.32 1029.89 1029.77 1030.25 1030.12 1028.88 1028.13 1027.39 1025.85 1024.24 1023.73 1023.06 1022.12 1021.02 1020.30 1020.47 1020.51 1020.78 1021.23 1020.81 1020.24 1018.99 1019.75 1021.71 1024.72 1028.21 1029.30 1029.95 1030.31 1030.94 1032.51 1032.89 1032.90 1033.04
1024.64 1024.15 1023.53 1023.37 1023.69 1023.67 1023.72 1025.41 1025.62 1025.83 1028.04 1031.28 1032.59 1031.91 1031.53 1030.75 1029.25 1027.49 1026.07 1024.84 1024.11 1023.10 1021.91 1021.72 1022.62 1023.59 1024.89 1023.93 1022.99 1022.64 1022.11 1020.04 1020.34 1023.13 1025.05 1028.18 1029.72 1030.60 1031.15 1031.29 1032.25 1033.16 1033.38 1033.57
1025.43 1024.71 1024.75 1024.07 1024.49 1024.50 1024.28 1026.50 1026.66 1026.51 1029.52 1032.59 1033.40 1033.09 1033.06 1032.37 1031.21 1029.84 1027.93 1026.48 1024.80 1023.56 1023.08 1023.90 1025.31 1026.37 1027.72 1028.16 1028.64 1028.05 1026.22 1025.60 1025.67 1025.83 1027.37 1030.02 1031.17 1031.60 1031.44 1031.23 1033.38 1033.11 1033.61 1033.84
1025.29 1025.77 1025.38 1025.20 1025.16 1025.15 1025.27 1027.60 1027.30 1026.82 1030.00 1032.72 1033.59 1033.59 1033.39 1032.55 1032.17 1030.98 1028.77 1027.94 1026.86 1026.03 1025.89 1026.70 1028.01 1028.72 1030.28 1030.97 1032.46 1032.33 1031.58 1030.86 1029.94 1028.93 1029.62 1031.62 1032.48 1032.03 1032.05 1032.83 1032.99 1033.35 1033.65 1033.64
1026.33 1025.89 1025.91 1025.99 1025.89 1026.25 1026.26 1027.33 1028.20 1028.07 1028.89 1031.99 1032.58 1032.72 1032.95 1032.98 1032.83 1032.44 1030.76 1030.39 1030.03 1029.75 1029.07 1029.47 1029.79 1030.70 1031.58 1032.98 1032.93 1033.86 1033.99 1034.75 1033.91 1033.32 1033.01 1033.36 1033.55 1033.51 1033.12 1033.24 1033.19 1033.41 1033.78 1033.74
1026.85 1026.66 1026.63 1026.57 1026.82 1026.88 1026.78 1028.17 1028.75 1028.53 1029.74 1031.50 1031.73 1032.31 1032.75 1032.72 1032.73 1032.83 1032.13 1031.04 1031.07 1030.91 1031.39 1030.94 1031.72 1032.55 1033.58 1033.63 1034.39 1034.58 1035.19 1035.87 1035.14 1034.62 1033.86 1033.54 1033.63 1033.77 1033.88 1033.81 1033.66 1033.51 1033.44 1033.24
1027.20 1027.18 1027.10 1027.28 1027.42 1027.31 1027.24 1027.99 1028.80 1028.60 1029.15 1030.13 1031.53 1031.66 1031.95 1031.77 1031.70 1032.05 1031.86 1031.27 1031.34 1031.29 1031.28 1031.61 1032.61 1033.48 1034.61 1034.71 1035.22 1034.86 1035.49 1035.54 1035.33 1034.09 1033.61 1033.66 1033.70 1033.87 1033.70 1033.68 1033.54 1033.32 1033.03 1032.79
1027.59 1027.44 1027.41 1027.06 1026.94 1027.54 1027.77 1028.19 1028.77 1028.61 1028.92 1029.50 1030.67 1031.59 1031.82 1031.71 1031.65 1031.56 1031.43 1031.25 1031.07 1031.21 1031.63 1032.62 1034.47 1035.34 1035.16 1035.27 1034.89 1034.04 1034.75 1034.84 1034.89 1033.96 1033.89 1034.28 1033.66 1033.61 1033.76 1033.76 1033.35 1033.00 1032.80 1032.39
1027.74 1027.79 1027.65 1027.25 1026.93 1027.22 1027.58 1028.19 1028.67 1028.44 1028.76 1029.25 1030.40 1031.60 1031.73 1031.69 1031.69 1031.29 1031.09 1031.11 1031.37 1032.04 1032.91 1034.57 1035.56 1036.31 1035.69 1034.37 1033.57 1033.15 1033.52 1034.22 1034.06 1033.81 1033.97 1034.15 1033.65 1033.84 1033.75 1033.71 1032.98 1032.74 1032.66 1032.35
1027.92 1027.96 1027.84 1027.61 1027.33 1027.54 1028.04 1029.29 1029.40 1028.72 1028.84 1029.21 1030.67 1031.46 1032.26 1032.55 1032.08 1031.96 1031.89 1031.87 1032.42 1032.61 1033.90 1034.68 1035.03 1035.21 1034.75 1033.63 1032.51 1031.87 1031.93 1032.36 1032.92 1033.48 1034.42 1033.82 1033.03 1032.85 1032.73 1032.99 1032.46 1032.41 1032.26 1032.13
1027.98 1028.09 1028.07 1028.06 1028.15 1028.48 1028.79 1029.70 1029.46 1029.26 1029.31 1030.10 1032.14 1032.70 1032.95 1034.07 1033.53 1033.23 1033.35 1032.86 1032.84 1033.62 1034.56 1035.23 1034.94 1034.82 1033.98 1032.79 1031.92 1031.46 1031.26 1031.45 1031.84 1032.40 1033.20 1032.13 1032.08 1032.36 1031.94 1031.97 1031.88 1031.60 1031.05 1030.58
1027.89 1027.97 1028.23 1028.61 1028.83 1029.24 1029.87 1029.69 1029.96 1030.03 1030.61 1032.83 1035.09 1036.36 1035.59 1035.42 1035.22 1034.97 1034.18 1033.93 1033.59 1034.34 1034.52 1035.05 1035.08 1033.56 1032.95 1032.57 1031.68 1031.17 1030.85 1031.10 1030.90 1031.17 1031.58 1031.63 1031.65 1030.83 1030.43 1030.42 1030.19 1030.08 1029.30 1029.03
1028.00 1028.31 1028.53 1029.30 1030.04 1029.76 1029.91 1029.90 1030.37 1031.37 1033.62 1035.18 1037.25 1038.92 1037.93 1038.16 1036.66 1035.85 1035.61 1034.84 1034.73 1034.41 1035.38 1035.13 1034.12 1032.89 1032.34 1031.82 1031.42 1031.14 1030.70 1030.41 1030.30 1030.35 1029.67 1029.62 1029.46 1029.04 1028.63 1028.37 1028.10 1027.95 1027.57 1027.28
1028.39 1028.79 1029.51 1029.94 1029.86 1030.02 1030.67 1032.08 1033.19 1034.60 1036.00 1037.50 1038.71 1039.22 1039.11 1039.02 1038.76 1037.91 1037.91 1036.62 1035.60 1034.97 1035.16 1034.37 1033.30 1032.24 1031.63 1031.12 1030.78 1030.41 1030.31 1029.88 1029.51 1029.33 1028.86 1028.45 1028.15 1027.75 1027.28 1026.74 1026.56 1026.35 1026.08 1025.79
1029.01 1029.22 1030.05 1030.19 1031.06 1031.68 1033.15 1035.16 1035.78 1036.58 1037.80 1038.44 1038.84 1039.11 1039.26 1039.19 1039.24 1038.59 1037.80 1037.02 1035.80 1035.19 1035.23 1033.82 1032.34 1031.70 1031.25 1030.68 1030.33 1030.05 1029.81 1029.40 1028.86 1028.51 1027.94 1027.44 1027.03 1026.58 1026.13 1025.67 1025.18 1024.90 1024.70 1024.44
1029.17 1029.78 1031.51 1032.67 1034.45 1035.60 1036.98 1037.91 1037.80 1038.10 1038.49 1039.22 1039.45 1039.30 1039.50 1039.20 1038.95 1038.50 1037.85 1036.48 1035.61 1035.07 1033.94 1032.92 1031.97 1031.33 1031.01 1030.67 1030.22 1029.82 1029.56 1029.11 1028.55 1027.90 1027.41 1026.88 1026.28 1025.82 1025.47 1024.70 1024.17 1023.79 1023.52 1023.29
1030.82 1032.70 1035.08 1036.17 1037.73 1038.31 1038.77 1039.16 1039.30 1039.08 1039.27 1039.58 1039.70 1039.61 1039.50 1039.01 1038.57 1038.11 1037.04 1035.94 1035.48 1033.90 1033.22 1032.31 1031.48 1031.33 1030.99 1030.69 1030.30 1029.80 1029.10 1028.71 1028.20 1027.61 1026.98 1026.38 1025.78 1025.09 1024.62 1024.07 1023.48 1023.05 1022.50 1022.03
1033.36 1034.78 1037.63 1038.46 1038.95 1039.35 1039.76 1040.15 1040.12 1039.85 1040.02 1039.91 1039.78 1039.57 1039.38 1038.51 1037.87 1037.14 1036.16 1035.35 1034.85 1034.51 1033.58 1032.59 1032.09 1031.73 1031.40 1030.82 1030.29 1029.79 1029.11 1028.41 1027.89 1027.39 1026.67 1026.00 1025.37 1024.71 1023.94 1023.33 1022.77 1022.34 1021.88 1021.42
1035.33 1037.40 1039.15 1039.70 1039.72 1039.86 1040.01 1040.24 1040.23 1040.29 1040.15 1040.10 1039.88 1039.27 1038.45 1038.42 1038.10 1036.84 1036.71 1036.16 1035.14 1034.39 1033.86 1033.25 1032.63 1032.11 1031.67 1031.08 1030.53 1029.98 1029.36 1028.74 1028.03 1027.33 1026.67 1025.93 1025.16 1024.41 1023.67 1022.90 1022.25 1021.65 1021.20 1020.71
1037.92 1040.05 1040.00 1040.12 1040.29 1040.53 1040.62 1040.90 1040.72 1040.52 1039.99 1039.97 1039.64 1039.52 1039.60 1038.94 1037.87 1037.09 1036.52 1036.32 1035.99 1035.15 1034.19 1033.69 1033.23 1032.56 1031.77 1031.21 1030.58 1029.98 1029.37 1028.67 1027.97 1027.24 1026.50 1025.75 1024.90 1024.07 1023.18 1022.31 1021.60 1020.98 1020.36 1019.75
Wind_Speed
20 21 20 20 21 21 8 5 4 5 5 4 2 4 15 12 17 14 9 11 15 17 22 23 21 18 17 13 10 11 9 6 11 9 4 3 4 5 10 5 6 6 5 6
20 20 19 19 19 17 5 3 4 4 3 4 7 12 12 9 13 13 10 9 8 9 9 9 13 21 19 13 16 11 11 7 5 4 4 2 3 6 5 3 2 6 6 6
20 19 20 19 17 14 4 3 3 2 4 3 6 9 9 13 13 7 10 8 10 15 7 1 8 12 7 14 17 20 8 7 5 5 5 4 7 10 6 4 4 5 6 14
18 19 18 18 18 14 1 2 4 5 5 7 7 7 9 10 11 10 13 7 16 12 8 11 8 8 11 8 16 13 8 12 13 20 22 26 22 20 19 9 3 4 12 14
21 19 19 19 19 10 2 2 3 5 5 8 7 13 8 7 11 6 7 11 15 11 7 6 9 10 10 9 14 11 6 11 10 12 16 26 23 20 13 12 14 19 18 11
21 20 18 20 21 9 3 3 1 4 7 5 3 6 7 8 12 5 5 13 8 8 8 8 4 8 7 7 11 10 7 10 5 5 7 6 14 19 11 10 12 2 5 6
22 23 19 21 21 12 4 3 1 4 4 4 4 5 5 9 9 6 11 7 6 5 15 11 10 8 4 9 14 15 7 3 4 5 3 7 3 6 13 14 9 9 12 6
25 24 22 19 20 20 6 3 2 4 5 3 5 11 6 11 5 4 5 4 5 12 8 4 4 0 2 6 11 18 15 1 7 5 7 6 4 4 5 4 3 5 4 5
25 24 22 26 18 10 5 5 3 5 6 10 5 5 4 6 8 6 4 6 10 8 3 4 8 8 6 9 18 15 16 17 7 3 6 5 4 3 3 4 3 3 3 4
19 25 26 24 19 21 8 5 4 6 7 3 1 5 5 4 4 5 6 10 11 9 5 6 7 5 4 8 10 12 12 9 13 10 7 5 3 6 3 1 4 4 1 4
19 17 15 19 23 23 7 2 6 4 6 3 6 5 3 2 2 5 7 4 4 7 7 4 4 6 5 3 2 6 9 7 6 3 5 5 3 4 3 3 4 4 5 6
19 17 19 15 13 11 7 5 3 3 6 3 4 5 3 5 3 3 4 3 2 4 2 4 3 4 3 2 5 1 4 5 4 4 3 3 3 3 2 1 3 4 6 7
17 20 21 18 14 12 7 3 2 3 4 3 2 3 1 4 4 3 3 2 1 3 2 3 3 8 2 5 6 4 3 3 3 3 3 5 4 4 6 7 10 7 9 9
6 6 7 10 13 15 7 4 2 1 3 3 1 1 3 6 4 4 4 1 3 4 1 4 4 4 3 3 2 3 3 3 4 4 5 7 7 9 7 7 10 11 12 13
14 13 12 9 5 13 10 5 4 2 1 3 2 1 1 6 6 6 6 3 2 3 4 5 4 2 1 1 2 2 3 1 3 4 2 3 7 3 4 8 11 12 12 13
8 8 12 14 4 9 2 1 2 8 3 3 2 1 5 9 7 8 12 7 5 4 3 3 2 1 1 3 3 4 4 5 5 5 1 6 10 8 9 10 12 12 11 12
3 6 10 12 9 3 4 3 5 11 0 2 2 2 5 8 4 4 5 5 4 4 3 4 1 1 1 0 6 12 7 8 8 8 1 10 8 7 2 8 9 10 10 11
2 2 6 10 12 8 4 4 10 2 4 5 4 4 2 11 5 5 6 4 2 6 3 1 2 2 2 3 10 11 9 7 8 9 13 13 7 9 12 9 8 11 12 10
2 1 6 2 4 3 2 3 6 5 6 6 4 6 6 9 4 3 3 3 3 1 3 3 3 1 5 8 13 13 13 10 11 9 8 11 12 15 14 12 12 12 13 12
3 2 1 3 2 5 2 4 4 8 7 6 4 1 4 5 5 3 5 3 3 1 3 3 1 2 0 5 7 10 12 12 9 7 10 7 11 11 13 12 11 12 12 12
2 2 2 1 5 1 4 5 6 5 4 4 2 1 5 2 3 4 3 2 2 1 3 3 1 2 5 10 8 11 11 11 12 11 14 14 15 14 14 15 15 13 14 13
2 4 3 2 6 5 8 4 3 5 4 4 4 4 2 2 1 2 2 3 2 2 4 2 1 1 9 15 14 15 14 14 15 15 15 15 15 15 14 14 15 14 14 14
2 5 7 6 6 13 6 7 5 5 5 3 5 6 3 2 1 1 3 3 3 2 2 3 2 7 15 16 15 16 15 16 16 16 15 16 16 16 14 16 14 15 14 14
6 6 9 6 5 2 3 3 3 3 3 6 5 3 3 2 3 2 4 2 2 4 6 5 8 17 19 17 15 16 19 17 17 17 16 16 15 15 15 14 14 13 14 14
6 6 5 3 1 2 2 3 4 1 3 5 3 2 2 2 2 1 3 7 6 2 5 9 14 19 18 18 18 18 18 16 15 15 15 15 15 14 14 13 12 13 13 14
6 7 5 1 1 3 2 1 3 2 4 1 1 2 2 6 3 5 4 6 4 7 10 12 15 17 17 18 18 17 16 16 16 15 15 15 15 15 15 15 13 11 12 12
6 3 2 2 2 0 2 1 3 4 3 4 2 7 5 4 5 5 3 4 10 13 13 11 15 18 18 17 15 15 16 16 15 15 15 15 15 14 12 14 14 14 13 12
Wind_Direction
353 347 343 354 354 352 354 328 281 12 327 293 245 280 315 329 4 14 320 336 355 348 337 283 252 221 213 201 170 170 206 217 218 204 49 347 61 196 188 213 186 239 278 112
356 355 349 349 350 355 333 321 286 23 314 310 323 353 321 2 352 345 351 322 350 339 332 335 334 341 316 245 176 190 164 214 200 151 147 83 80 38 350 57 52 201 229 129
4 355 356 351 346 349 356 329 333 61 59 62 3 345 347 334 339 307 5 345 341 328 293 135 295 329 334 6 5 344 225 70 340 223 78 37 73 23 341 358 203 91 34 138
9 3 360 352 349 344 137 6 43 3 7 14 9 340 7 342 346 350 12 2 359 338 295 328 9 343 345 338 7 343 48 53 64 60 74 81 76 57 46 62 21 37 126 121
22 13 8 4 4 351 36 54 356 61 31 353 4 8 24 331 334 313 359 358 338 20 49 13 335 347 8 22 319 5 22 137 102 65 78 72 56 47 53 50 69 89 104 92
24 21 20 15 5 16 58 17 37 89 16 352 355 15 330 308 344 265 318 336 328 29 29 337 50 87 107 63 8 339 338 153 125 152 214 306 38 3 45 66 28 44 102 109
34 32 30 28 23 30 58 33 6 80 32 20 14 325 319 290 314 277 310 319 350 3 325 301 246 235 208 27 25 19 350 63 64 117 320 48 217 66 83 80 51 65 89 87
41 42 45 35 44 45 75 17 53 109 90 330 333 333 312 304 291 276 271 313 343 305 296 260 306 35 340 348 9 19 7 92 85 89 56 148 144 41 20 355 74 29 63 25
47 47 48 50 47 53 78 51 340 81 122 12 305 316 335 340 337 325 273 321 314 328 290 34 26 27 326 336 332 6 11 30 76 91 77 77 60 41 355 215 116 163 43 6
50 52 52 54 54 57 78 48 352 80 99 38 321 14 319 312 288 270 302 342 344 344 31 53 28 38 308 14 9 341 344 4 43 48 92 94 39 321 309 234 70 146 28 331
55 50 45 50 55 52 68 78 7 89 98 110 188 186 313 299 339 344 339 280 25 1 53 46 32 34 37 62 4 347 2 347 18 18 80 65 23 263 330 62 167 208 280 310
57 55 54 58 55 55 47 65 23 26 71 143 185 199 193 181 220 275 329 54 340 19 78 61 118 56 35 294 43 132 22 14 0 355 51 352 299 296 349 232 260 247 257 284
67 64 66 65 63 63 84 108 352 54 105 117 75 354 33 213 200 202 321 101 113 71 327 96 95 80 277 23 37 287 130 179 305 276 178 252 257 248 243 215 231 248 254 283
59 66 67 68 70 73 79 72 357 47 101 88 77 220 38 341 25 188 223 70 131 103 46 68 64 79 338 70 28 349 9 271 337 264 258 272 247 238 251 243 245 258 267 276
67 52 26 346 225 108 86 86 59 45 341 121 138 205 51 9 8 46 74 100 100 33 59 45 60 77 205 64 234 36 195 313 336 302 201 254 279 249 238 243 253 263 270 276
51 31 21 24 58 137 179 155 89 24 8 110 141 9 360 357 353 24 33 35 56 64 60 85 101 163 297 44 14 266 217 221 229 261 34 239 276 293 248 260 261 261 257 260
352 21 27 37 57 74 53 75 322 341 318 87 91 23 29 345 340 29 3 31 49 50 92 60 46 94 315 111 18 332 305 251 242 238 253 275 233 246 234 225 260 279 280 265
276 14 68 95 80 96 57 18 13 45 89 44 43 330 344 5 0 354 4 1 28 29 97 135 17 198 238 22 338 324 313 285 264 240 213 249 307 286 261 240 256 261 261 261
241 29 118 78 28 46 20 69 58 46 46 88 58 347 325 357 23 349 328 345 58 322 51 46 287 301 53 339 323 324 327 309 295 301 245 250 250 267 274 268 261 250 260 257
77 70 87 40 9 289 12 6 20 25 20 35 78 209 313 342 346 0 328 5 47 56 44 292 319 97 340 293 323 308 305 312 307 292 302 298 274 275 278 273 266 259 263 270
49 50 77 285 318 62 32 44 35 347 41 28 46 7 318 49 327 333 34 344 339 17 38 321 22 201 332 331 330 339 306 304 310 283 274 278 276 278 281 282 276 273 270 263
116 106 91 46 27 34 57 10 343 25 347 359 347 341 301 327 277 309 11 329 297 3 333 300 339 323 327 342 339 337 332 324 316 314 305 297 289 284 279 277 279 275 272 272
61 50 49 29 330 37 41 345 323 329 356 27 340 325 349 317 346 284 317 331 1 286 328 344 298 321 343 338 336 334 329 327 323 319 314 307 302 296 286 284 279 277 272 269
60 56 30 58 3 21 217 236 264 307 310 340 326 295 331 347 327 338 320 43 268 1 357 341 336 340 334 335 333 329 329 329 326 322 317 313 310 305 302 292 286 284 277 276
74 63 67 56 2 293 328 312 299 312 316 325 309 262 316 333 310 350 304 356 2 21 329 318 328 331 331 331 332 330 327 327 328 326 322 319 316 313 310 307 298 286 283 283
71 54 89 94 49 335 324 332 295 358 321 265 218 313 349 43 343 11 36 322 320 333 325 319 320 325 325 326 327 326 328 328 324 323 324 321 320 318 313 311 311 305 292 282
62 60 20 76 93 160 294 314 310 316 313 14 335 38 353 283 356 2 14 356 315 312 312 313 317 318 319 320 318 328 326 324 325 324 325 321 316 313 315 325 325 319 310 299